This demonstration page uses our WeatherBlox Daily Observations layout. Learn more.

Hourly Observations for July 7, 2017

Temp ( °F °C ) Dew Point ( °F °C ) Humidity (%) Winds ( mph kmh ) Pressure ( in mb ) Visibility ( mi km ) Precip ( " mm )
12:15 am 00:15 Cloudy 73 23 73 23 100 100 Calm 29.91 1013 7 11.265408 0 0
12:35 am 00:35 Cloudy 73 23 73 23 100 100 Calm 29.91 1013 7 11.265408 0 0
12:55 am 00:55 Cloudy with Heavy Rain 73 23 73 23 100 100 Calm 29.91 1013 4 6.437376 0.01 0.254
1:15 am 01:15 Cloudy with Heavy Rain 73 23 73 23 100 100 Calm 29.91 1013 1.75 2.816352 0.29 7.366
1:35 am 01:35 Cloudy with Heavy Rain 73 23 73 23 100 100 Calm 29.91 1013 4 6.437376 0.4 10.16
1:55 am 01:55 Cloudy with Rain 72 22 72 22 100 100 E 3 6 29.88 1012 4 6.437376 0.44 11.176
2:15 am 02:15 Cloudy with Rain 73 23 73 23 100 100 S 3 6 29.88 1012 4 6.437376 0.04 1.016
2:35 am 02:35 Cloudy with Light Rain 72 22 72 22 100 100 ESE 3 6 29.88 1012 4 6.437376 0.08 2.032
2:55 am 02:55 Cloudy 73 23 73 23 100 100 SE 3 6 29.88 1012 7 11.265408 0.08 2.032
3:15 am 03:15 Cloudy with Mist and Fog 72 22 72 22 100 100 Calm 29.88 1012 4 6.437376 0 0
3:35 am 03:35 Cloudy with Mist and Fog 72 22 72 22 100 100 Calm 29.88 1012 5 8.04672 0 0
3:55 am 03:55 Cloudy with Light Rain 72 22 72 22 100 100 Calm 29.85 1011 7 11.265408 0 0
4:15 am 04:15 Cloudy with Mist and Fog 72 22 72 22 100 100 Calm 29.85 1011 5 8.04672 0 0
4:35 am 04:35 Cloudy with Light Rain 72 22 72 22 100 100 Calm 29.85 1011 4 6.437376 0 0
4:55 am 04:55 Cloudy with Light Rain 72 22 72 22 100 100 Calm 29.83 1010 4 6.437376 0 0
5:15 am 05:15 Cloudy with Mist and Fog 72 22 72 22 100 100 Calm 29.85 1011 4 6.437376 0 0
5:35 am 05:35 Cloudy with Mist and Fog 72 22 72 22 100 100 Calm 29.83 1010 4 6.437376 0 0
5:55 am 05:55 Cloudy with Mist and Fog 72 22 72 22 100 100 SW 3 6 29.83 1010 3 4.828032 0 0
6:15 am 06:15 Cloudy with Rain 72 22 72 22 100 100 Calm 29.83 1010 3 4.828032 0.01 0.254
6:35 am 06:35 Cloudy with Mist and Fog 72 22 72 22 100 100 Calm 29.83 1010 2 3.218688 0.02 0.508
6:55 am 06:55 Cloudy with Light Rain 72 22 72 22 100 100 W 3 6 29.83 1010 2.5 4.02336 0.02 0.508
7:15 am 07:15 Cloudy with Light Rain 73 23 73 23 100 100 WSW 3 6 29.83 1010 4 6.437376 0 0
7:35 am 07:35 Cloudy with Mist and Fog 73 23 73 23 100 100 W 3 6 29.83 1010 5 8.04672 0 0
7:55 am 07:55 Cloudy 73 23 73 23 100 100 W 5 7 29.85 1011 10 16.09344 0 0
8:15 am 08:15 Cloudy 73 23 73 23 100 100 WNW 8 13 29.85 1011 10 16.09344 0 0
8:35 am 08:35 Cloudy 73 23 73 23 100 100 W 8 13 29.85 1011 10 16.09344 0 0
8:55 am 08:55 Cloudy 75 24 75 24 100 100 WNW 8 13 29.85 1011 10 16.09344 0 0
9:15 am 09:15 Cloudy with Rain 73 23 73 23 100 100 NNW 9 15 29.88 1012 3 4.828032 0.02 0.508
9:35 am 09:35 Cloudy 73 23 73 23 100 100 NNW 14 22 29.88 1012 10 16.09344 0.02 0.508
9:55 am 09:55 Cloudy 75 24 73 23 94 94 NNW 12 19 29.88 1012 10 16.09344 0.02 0.508
10:15 am 10:15 Cloudy 77 25 73 23 89 89 NNW 12 19 29.88 1012 10 16.09344 0 0
10:35 am 10:35 Cloudy 77 25 73 23 89 89 NNW 13 20 29.91 1013 10 16.09344 0 0
10:55 am 10:55 Cloudy 79 26 72 22 79 79 N 12 19 29.91 1013 10 16.09344 0 0
11:15 am 11:15 Cloudy 79 26 72 22 79 79 NNW 12 19 29.91 1013 10 16.09344 0 0
11:35 am 11:35 Cloudy 79 26 72 22 79 79 N 7 11 29.91 1013 10 16.09344 0 0
11:55 am 11:55 Mostly Cloudy 81 27 73 23 79 79 N 6 9 29.91 1013 10 16.09344 0 0
12:15 pm 12:15 Mostly Cloudy 82 28 73 23 74 74 N 7 11 29.88 1012 10 16.09344 0 0
12:35 pm 12:35 Mostly Cloudy 82 28 72 22 70 70 N 9 15 29.88 1012 10 16.09344 0 0
12:55 pm 12:55 Mostly Cloudy 86 30 72 22 62 62 NNW 10 17 29.85 1011 10 16.09344 0 0
1:15 pm 13:15 Partly Cloudy 86 30 72 22 62 62 NNW 13 20 29.85 1011 10 16.09344 0 0
1:30 pm 13:30 Partly Cloudy 86 30 72 22 62 62 NW 12 19 29.85 1011 10 16.09344 0 0
1:55 pm 13:55 Partly Cloudy 86 30 70 21 59 59 NNW 9 15 29.83 1010 10 16.09344 0 0
2:15 pm 14:15 Sunny 86 30 70 21 59 59 NW 6 9 29.83 1010 10 16.09344 0 0
2:35 pm 14:35 Partly Cloudy 88 31 70 21 55 55 W 9 15 29.83 1010 10 16.09344 0 0
2:55 pm 14:55 Partly Cloudy 88 31 70 21 55 55 W 8 13 29.8 1009 10 16.09344 0 0
3:15 pm 15:15 Sunny 90 32 70 21 52 52 WNW 10 17 29.8 1009 10 16.09344 0 0
3:35 pm 15:35 Sunny 90 32 68 20 49 49 W 7 11 29.8 1009 10 16.09344 0 0
3:55 pm 15:55 Sunny 90 32 68 20 49 49 WSW 8 13 29.8 1009 10 16.09344 0 0
4:15 pm 16:15 Sunny 90 32 68 20 49 49 W 9 15 29.8 1009 10 16.09344 0 0
4:35 pm 16:35 Sunny 91 33 68 20 46 46 W 13 20 29.8 1009 10 16.09344 0 0
4:55 pm 16:55 Sunny 91 33 68 20 46 46 W 9 15 29.8 1009 10 16.09344 0 0
5:15 pm 17:15 Sunny 90 32 68 20 49 49 WSW 6 9 29.77 1008 10 16.09344 0 0
5:35 pm 17:35 Sunny 90 32 70 21 52 52 WSW 6 9 29.77 1008 10 16.09344 0 0
5:55 pm 17:55 Partly Cloudy 90 32 70 21 52 52 SW 6 9 29.77 1008 10 16.09344 0 0
6:15 pm 18:15 Partly Cloudy 90 32 72 22 55 55 WSW 6 9 29.77 1008 10 16.09344 0 0
6:35 pm 18:35 Partly Cloudy 90 32 72 22 55 55 WSW 3 6 29.77 1008 10 16.09344 0 0
6:55 pm 18:55 Sunny 88 31 72 22 59 59 W 5 7 29.77 1008 10 16.09344 0 0
7:15 pm 19:15 Mostly Cloudy 86 30 73 23 66 66 W 8 13 29.8 1009 10 16.09344 0 0
7:35 pm 19:35 Mostly Cloudy with Light Rain 81 27 70 21 70 70 WNW 13 20 29.83 1010 10 16.09344 0 0
7:55 pm 19:55 Sunny 79 26 68 20 70 70 WNW 9 15 29.83 1010 10 16.09344 0 0
8:15 pm 20:15 Sunny 77 25 68 20 74 74 WNW 13 20 29.83 1010 10 16.09344 0 0
8:35 pm 20:35 Sunny 79 26 64 18 61 61 WNW 10 17 29.83 1010 10 16.09344 0 0
8:55 pm 20:55 Clear 77 25 64 18 65 65 W 3 6 29.83 1010 10 16.09344 0 0
9:15 pm 21:15 Clear 77 25 66 19 69 69 SW 6 9 29.83 1010 10 16.09344 0 0
9:35 pm 21:35 Clear 75 24 66 19 74 74 Calm 29.8 1009 10 16.09344 0 0
9:55 pm 21:55 Clear 73 23 66 19 78 78 Calm 29.83 1010 10 16.09344 0 0
10:15 pm 22:15 Clear 72 22 66 19 83 83 Calm 29.83 1010 10 16.09344 0 0
10:35 pm 22:35 Clear 73 23 68 20 83 83 Calm 29.85 1011 10 16.09344 0 0
10:55 pm 22:55 Partly Cloudy 73 23 68 20 83 83 S 3 6 29.85 1011 10 16.09344 0 0
11:15 pm 23:15 Clear 70 21 68 20 94 94 NNW 5 7 29.85 1011 10 16.09344 0 0
11:35 pm 23:35 Clear 72 22 68 20 88 88 Calm 29.85 1011 10 16.09344 0 0
11:55 pm 23:55 Partly Cloudy 70 21 68 20 94 94 NNW 3 6 29.85 1011 10 16.09344 0 0

Powered by AerisWeather